Le nostre stazioni meteo in Italia

Pubblicità
Il mio iltempo24.it
Lecce, Italia (16332): Temperatura & dewpoint: 30.05.2020 21:00:00 - 05.06.2020 21:00:00 (CEST)Lecce, Italia (16332): velocità del vento: 30.05.2020 21:00:00 - 05.06.2020 21:00:00 (CEST)Lecce, Italia (16332): direzione del vento: 30.05.2020 21:00:00 - 05.06.2020 21:00:00 (CEST)Lecce, Italia (16332): reduced air pressure: 30.05.2020 21:00:00 - 05.06.2020 21:00:00 (CEST)Lecce, Italia (16332): visibility: 30.05.2020 21:00:00 - 05.06.2020 21:00:00 (CEST)
Data & Tempo tt [°C] td [°C] ff [km/h] ff [kn] dd ppp [hPa] vv [km]
05.06.2020 21:00:00 18,0 17,0 11 6 NE - 10
05.06.2020 20:00:00 18,4 17,4 8 4 NO 1005,1 10
05.06.2020 19:00:00 20,0 17,0 16 9 S - 10
05.06.2020 18:00:00 20,0 17,0 21 11 ESE - 10
05.06.2020 17:00:00 21,0 17,0 18 10 SSE 1007,3 10
05.06.2020 16:00:00 20,0 17,0 26 14 SSE - 10
05.06.2020 15:00:00 22,0 17,0 29 16 SSE - 10
05.06.2020 14:00:00 22,0 17,4 26 14 SSE 1007,9 10
05.06.2020 13:00:00 22,0 16,0 35 19 SSE - 10
05.06.2020 12:00:00 24,0 18,0 41 22 SSE - 10
05.06.2020 11:00:00 20,8 17,2 34 18 SSE 1008,0 10
05.06.2020 10:00:00 20,0 18,0 29 16 S - 10
05.06.2020 09:00:00 19,0 18,0 34 18 SSE - 10
05.06.2020 08:00:00 19,4 17,7 35 19 SSE 1008,8 10
05.06.2020 07:00:00 19,0 18,0 31 17 S - 10
05.06.2020 06:00:00 19,0 17,0 37 20 SSE - 10
05.06.2020 05:00:00 19,8 17,9 31 17 SSE 1008,2 10
05.06.2020 04:00:00 20,0 18,0 34 18 SSE - 10
05.06.2020 03:00:00 20,0 18,0 34 18 SSE - 10
05.06.2020 02:00:00 20,0 18,1 29 16 S 1010,0 10
05.06.2020 01:00:00 20,0 18,0 29 16 S - 10
05.06.2020 00:00:00 20,0 18,0 35 19 S - 10
04.06.2020 23:00:00 20,0 18,3 29 16 S 1010,2 10
04.06.2020 22:00:00 19,0 17,0 29 16 S - 10
04.06.2020 21:00:00 20,0 18,0 28 15 S - 10
04.06.2020 20:00:00 21,0 18,9 28 15 S 1010,2 10
04.06.2020 19:00:00 22,0 19,0 35 19 S - 10
04.06.2020 18:00:00 22,0 19,0 39 21 S - 10
04.06.2020 17:00:00 23,4 17,6 35 19 S 1010,3 10
04.06.2020 16:00:00 - - - - - - -
04.06.2020 15:00:00 24,0 17,0 35 19 S - 10
04.06.2020 14:00:00 25,0 17,0 34 18 S 1010,6 10
04.06.2020 13:00:00 25,0 16,0 34 18 S - 10
04.06.2020 12:00:00 25,0 15,0 28 15 S - 10
04.06.2020 11:00:00 24,2 16,0 28 15 SSO 1010,5 10
04.06.2020 10:00:00 24,0 15,0 24 13 S - 10
04.06.2020 09:00:00 22,0 16,0 16 9 S - 10
04.06.2020 08:00:00 20,2 17,2 11 6 S 1009,9 10
04.06.2020 07:00:00 17,0 16,0 5 3 SE - 10
04.06.2020 06:00:00 15,0 14,0 5 3 SE - 10
04.06.2020 05:00:00 14,8 13,5 5 3 SE 1009,8 10
04.06.2020 04:00:00 15,0 14,0 5 3 S - 10
04.06.2020 03:00:00 15,0 14,0 5 3 SE - 10
04.06.2020 02:00:00 15,2 14,2 8 4 SSE 1011,2 10
04.06.2020 01:00:00 15,0 14,0 8 4 SE - 10
04.06.2020 00:00:00 16,0 15,0 5 3 ESE - 10
03.06.2020 23:00:00 17,0 14,8 5 3 SE 1011,3 10
03.06.2020 22:00:00 18,0 15,0 8 4 SE - 10
03.06.2020 21:00:00 19,0 15,0 8 4 S - 10
03.06.2020 20:00:00 20,0 13,7 9 5 SSO 1010,4 10
03.06.2020 19:00:00 23,0 13,0 13 7 SO - 10
03.06.2020 18:00:00 24,0 13,0 15 8 OSO - 10
03.06.2020 17:00:00 24,8 11,0 11 6 NE 1010,1 10
03.06.2020 16:00:00 25,0 11,0 13 7 N - 10
03.06.2020 15:00:00 25,0 12,0 28 15 NNE - 10
03.06.2020 14:00:00 24,2 12,5 15 8 N 1010,8 10
03.06.2020 13:00:00 24,0 13,0 18 10 N - 10
03.06.2020 12:00:00 24,0 16,0 16 9 N - 10
03.06.2020 11:00:00 23,2 11,3 21 11 NNO 1010,9 10
03.06.2020 10:00:00 22,0 13,0 16 9 NNO - 10
03.06.2020 09:00:00 21,0 15,0 15 8 NNO - 10
03.06.2020 08:00:00 19,0 14,5 13 7 NO 1010,1 10
03.06.2020 07:00:00 16,0 13,0 9 5 NO - 10
03.06.2020 06:00:00 13,0 11,0 5 3 O - 10
03.06.2020 05:00:00 13,8 11,7 5 3 O 1010,5 10
03.06.2020 04:00:00 14,0 12,0 9 5 O - 10
03.06.2020 03:00:00 13,0 11,0 4 2 OSO - 10
03.06.2020 02:00:00 13,2 11,4 4 2 OSO 1011,3 10
03.06.2020 01:00:00 14,0 13,0 0 0 N - 10
03.06.2020 00:00:00 15,0 13,0 9 5 O - 10
02.06.2020 23:00:00 15,0 13,0 9 5 O 1011,3 10
02.06.2020 22:00:00 16,0 13,0 5 3 N - 10
02.06.2020 21:00:00 17,0 12,0 9 5 NNO - 10
02.06.2020 20:00:00 19,2 10,7 13 7 NNO 1010,9 10
02.06.2020 19:00:00 21,0 11,0 24 13 NNO - 10
02.06.2020 18:00:00 22,0 11,0 26 14 NNO - 10
02.06.2020 17:00:00 23,8 11,2 26 14 NNO 1011,2 10
02.06.2020 16:00:00 24,0 12,0 29 16 NNO - 10
02.06.2020 15:00:00 23,0 14,0 21 11 N - 10
02.06.2020 14:00:00 23,4 13,9 24 13 N 1012,3 10
02.06.2020 13:00:00 23,0 14,0 26 14 N - 10
02.06.2020 12:00:00 22,0 15,0 18 10 NNO - 10
02.06.2020 11:00:00 22,2 14,3 24 13 NNO 1012,6 10
02.06.2020 10:00:00 21,0 16,0 24 13 NNO - 10
02.06.2020 09:00:00 20,0 16,0 22 12 NNO - 10
02.06.2020 08:00:00 18,0 15,1 24 13 NNO 1012,7 10
02.06.2020 07:00:00 15,0 14,0 15 8 NNO - 10
02.06.2020 06:00:00 14,0 13,0 11 6 NNO - 10
02.06.2020 05:00:00 12,8 12,0 5 3 NNO 1013,5 10
02.06.2020 04:00:00 13,0 12,0 5 3 - - 10
02.06.2020 03:00:00 13,0 12,0 8 4 OSO - 10
02.06.2020 02:00:00 13,0 12,2 4 2 N 1013,7 10
02.06.2020 01:00:00 13,0 12,0 4 2 - - 10
02.06.2020 00:00:00 14,0 13,0 4 2 - - 10
01.06.2020 23:00:00 13,8 13,0 8 4 ONO 1014,6 10
01.06.2020 22:00:00 15,0 14,0 9 5 NNO - 10
01.06.2020 21:00:00 17,0 15,0 16 9 NNO - 10
01.06.2020 20:00:00 18,0 13,9 16 9 NNO 1013,9 10
01.06.2020 19:00:00 19,0 12,0 16 9 N - 10
01.06.2020 18:00:00 20,0 13,0 22 12 N - 10
01.06.2020 17:00:00 20,6 12,8 26 14 N 1013,9 10
01.06.2020 16:00:00 20,0 13,0 22 12 NNO - 10
01.06.2020 15:00:00 21,0 12,0 21 11 NNO - 10
01.06.2020 14:00:00 21,2 13,1 18 10 N 1014,0 10
01.06.2020 13:00:00 20,0 15,0 22 12 N - 10
01.06.2020 12:00:00 18,0 15,0 18 10 NNO - 10
01.06.2020 11:00:00 16,4 13,5 22 12 NNO 1014,6 8
01.06.2020 10:00:00 15,0 12,0 5 3 N - 10
01.06.2020 09:00:00 15,0 13,0 16 9 NNO - 10
01.06.2020 08:00:00 16,2 13,3 15 8 NO 1014,8 10
01.06.2020 07:00:00 15,0 13,0 11 6 O - 10
01.06.2020 06:00:00 14,0 12,0 5 3 ONO - 10
01.06.2020 05:00:00 14,0 12,4 11 6 O 1015,3 10
01.06.2020 04:00:00 13,0 12,0 9 5 NO - 10
01.06.2020 03:00:00 13,0 12,0 4 2 NO - 10
01.06.2020 02:00:00 13,0 11,9 8 4 ONO 1015,4 10
01.06.2020 01:00:00 13,0 12,0 2 1 - - 10
01.06.2020 00:00:00 13,0 12,0 5 3 ONO - 10
31.05.2020 23:00:00 13,4 12,3 5 3 ONO 1015,4 10
31.05.2020 22:00:00 14,0 13,0 4 2 NNO - 10
31.05.2020 21:00:00 16,0 14,0 4 2 N - 10
31.05.2020 20:00:00 17,4 15,0 5 3 N 1014,4 10
31.05.2020 19:00:00 17,0 15,0 5 3 - - 10
31.05.2020 18:00:00 18,0 14,0 8 4 N - 10
31.05.2020 17:00:00 17,0 14,7 4 2 N 1014,8 10
31.05.2020 16:00:00 17,0 15,0 5 3 NE - 10
31.05.2020 15:00:00 16,0 15,0 5 3 - - 10
31.05.2020 14:00:00 18,0 15,4 11 6 ENE 1015,0 10
31.05.2020 13:00:00 17,0 15,0 16 9 NE - 10
31.05.2020 12:00:00 20,0 15,0 9 5 O - 10
31.05.2020 11:00:00 19,0 13,4 4 2 N 1015,0 10
31.05.2020 10:00:00 18,0 14,0 5 3 - - 10
31.05.2020 09:00:00 17,0 14,0 4 2 - - 10
31.05.2020 08:00:00 15,6 14,1 0 0 N 1014,6 10
31.05.2020 07:00:00 14,0 13,0 9 5 NNO - 10
31.05.2020 06:00:00 14,0 13,0 0 0 N - 10
31.05.2020 05:00:00 14,0 12,7 13 7 ESE 1014,4 10
31.05.2020 04:00:00 13,0 12,0 8 4 S - 10
31.05.2020 03:00:00 14,0 12,0 9 5 E - 10
31.05.2020 02:00:00 13,6 12,7 13 7 N 1014,9 10
31.05.2020 01:00:00 14,0 13,0 0 0 N - 7
31.05.2020 00:00:00 14,0 13,0 0 0 N - 7
30.05.2020 23:00:00 14,4 13,0 11 6 NNO 1015,4 10
30.05.2020 22:00:00 15,0 14,0 9 5 N - 10
30.05.2020 21:00:00 16,0 15,0 0 0 N - 10

tt = Temperatura
td = dewpoint
ff = velocità del vento
dd = direzione del vento
ppp = reduced air pressure
vv = visibility

Stazioni seguenti

WeatherPro
AMSI
MeteoEarth